Flag for Portugal Weather past 2 weeks in Porto, Portugal

Now
59 °F

Clear.


Feels Like: 57 °F
Forecast: 52 / 71 °F
Wind: 9 mph from East

Location: Porto / Pedras Rubras

Current Time: Apr 2, 2015 at 4:57:31 AM

Latest Report: Apr 2, 2015 at 4:30 AM


Visibility: 10 mi

Pressure: 30.24 "Hg

Humidity: 45%

Dew point: 37 °F

Location of PortoLocation

Historic Weather in Porto — Graph

°F

Porto temperature yesterday

Maximum temperature yesterday: 72 °F (at 1:00 PM)
Minimum temperature yesterday: 43 °F (at 8:00 AM)
Average temperature yesterday: 60 °F

Past Weeks' High & Low Weather Summary

 TemperatureHumidityPressure
High72 °F (Apr 1, 1:00 PM)100% (Mar 26, 8:30 AM)30.51 "Hg (Mar 26, 8:30 AM)
Low39 °F (Mar 25, 6:30 AM)32% (Mar 24, 4:00 PM)29.71 "Hg (Mar 20, 4:00 PM)
Average55 °F73%30.13 "Hg
* Reported Mar 18 2:00 AM — Apr 2 3:30 AM, Porto, Weather by CustomWeather, © 2015

Note: Actual official high and low records may vary slightly from our data, if they occured in-between our weather recording intervals... More about our weather records

Advertising

Porto weather history for previous 24 hours

 ConditionsComfort  
Time TempWeatherWind HumidityBarometerVisibility
3:30 AM
Thu, Apr 2
61 °FClear.6 mph42%30.24 "Hg10 mi
3:00 AM61 °FClear.6 mph48%30.24 "Hg10 mi
2:30 AM63 °FClear.6 mph45%30.24 "Hg10 mi
2:00 AM61 °FClear.6 mph48%30.27 "Hg10 mi
1:30 AM61 °FClear.6 mph52%30.27 "Hg10 mi
1:00 AM61 °FClear.6 mph52%30.27 "Hg10 mi
12:30 AM63 °FClear.7 mph49%30.27 "Hg10 mi
12:00 AM64 °FPassing clouds.5 mph46%30.27 "HgN/A
11:30 PM
Wed, Apr 1
64 °FClear.7 mph49%30.27 "Hg10 mi
11:00 PM59 °FClear.6 mph72%30.27 "Hg10 mi
10:30 PM59 °FPassing clouds.5 mph72%30.27 "HgN/A
10:00 PM59 °FClear.No wind72%30.27 "Hg10 mi
9:30 PM61 °FClear.No wind68%30.27 "Hg10 mi
9:00 PM61 °FClear.2 mph68%30.24 "Hg10 mi
8:30 PM63 °FSunny.2 mph64%30.24 "Hg10 mi
8:00 PM66 °FPassing clouds.3 mph56%30.24 "HgN/A
7:30 PM68 °FSunny.6 mph49%30.24 "Hg10 mi
7:00 PM72 °FSunny.7 mph44%30.24 "Hg10 mi
6:30 PM72 °FSunny.9 mph44%30.24 "Hg10 mi
6:00 PM72 °FSunny.8 mph47%30.24 "Hg10 mi
5:30 PM72 °FPassing clouds.7 mph50%30.27 "HgN/A
5:00 PM72 °FPassing clouds.7 mph50%30.27 "HgN/A
4:30 PM72 °FPassing clouds.8 mph47%30.27 "HgN/A
4:00 PM70 °FSunny.10 mph46%30.30 "Hg10 mi
3:30 PM70 °FPassing clouds.10 mph50%30.30 "HgN/A
3:00 PM68 °FPassing clouds.9 mph49%30.33 "HgN/A
2:30 PM70 °FSunny.10 mph50%30.33 "Hg10 mi
2:00 PM68 °FSunny.8 mph56%30.33 "Hg10 mi
1:30 PM70 °FPassing clouds.7 mph50%30.36 "HgN/A
1:00 PM72 °FSunny.6 mph41%30.36 "Hg10 mi
12:30 PM70 °FSunny.7 mph40%30.36 "Hg10 mi
12:00 PM70 °FSunny.5 mph40%30.39 "Hg10 mi
11:30 AM68 °FPassing clouds.5 mph49%30.39 "HgN/A
11:00 AM64 °FSunny.7 mph52%30.39 "Hg10 mi
10:30 AM63 °FSunny.9 mph56%30.39 "Hg10 mi
10:00 AM61 °FPassing clouds.5 mph63%30.39 "HgN/A
9:30 AM59 °FPassing clouds.7 mph68%30.39 "HgN/A
9:00 AM55 °FPassing clouds.6 mph77%30.39 "HgN/A
8:45 AM54 °FPassing clouds.5 mph88%30.39 "HgN/A
8:30 AM50 °FSunny.No wind94%30.39 "Hg10 mi
8:00 AM43 °FClear.2 mph100%30.39 "Hg10 mi
7:30 AM46 °FClear.2 mph93%30.39 "Hg10 mi
7:00 AM45 °FPassing clouds.5 mph93%30.39 "HgN/A
6:30 AM45 °FClear.3 mph93%30.39 "Hg10 mi
6:00 AM48 °FClear.No wind87%30.39 "Hg10 mi
5:30 AM50 °FClear.5 mph82%30.36 "Hg10 mi
5:00 AM48 °FClear.3 mph87%30.36 "Hg10 mi
4:30 AM50 °FPassing clouds.3 mph82%30.36 "HgN/A
4:00 AM52 °FClear.9 mph82%30.39 "Hg10 mi
Weather by CustomWeather, © 2015

See weather overviewHow to use our weather pages